BRUNSWICK RIVER AT VILLAGE PIER GA US USGS current weather conditions

sailwx.info

Wind from 262 at 12 knots

Last reported at 2020-Jul-12 16:45 UTC.
Time now 2020-Jul-12 17:18 UTC

Location: N 31°08' W 081°24'.
View on Google Maps.

See reports from other nearby stations

  
Tides and Currents Weather Stations Pressure Air Temp Water Temp Dewpoint Dewpoint Depression Visibility Wind Speed Wind Dir Waves Ship Positions
date/time (UTC)wind fromknots sea level pressurealtimeterstation pressurevisibilityair tempwater tempwave heightnotes
2020-Jul-12 16:45 262 12
2020-Jul-12 15:45 261 11
2020-Jul-12 14:45 246 1
2020-Jul-12 13:45 260 3
2020-Jul-12 12:45 244 6
2020-Jul-12 11:45 269 6
2020-Jul-12 10:45 287 6
2020-Jul-12 09:45 290 5
2020-Jul-12 08:45 293 3
2020-Jul-12 07:45 272 6
2020-Jul-12 06:45 248 5
2020-Jul-12 05:45 226 3
2020-Jul-12 04:45 249 7
2020-Jul-12 03:45 243 7
2020-Jul-12 02:45 226 9
2020-Jul-12 01:45 211 5
2020-Jul-12 00:45 162 10
2020-Jul-11 23:45 171 10
2020-Jul-11 22:45 150 12
2020-Jul-11 21:45 157 12
2020-Jul-11 20:45 160 6
2020-Jul-11 19:45 150 7
2020-Jul-11 18:45 164 4
2020-Jul-11 17:45 259 7
2020-Jul-11 16:45 230 3
2020-Jul-11 15:45 236 4
2020-Jul-11 14:45 276 4
2020-Jul-11 13:45 303 6
2020-Jul-11 12:45 281 8
2020-Jul-11 11:45 300 8
2020-Jul-11 10:45 270 9
2020-Jul-11 09:45 269 12
2020-Jul-11 08:45 257 8
2020-Jul-11 07:45 263 6
2020-Jul-11 06:45 254 7
2020-Jul-11 05:45 231 9
2020-Jul-11 04:45 207 9
2020-Jul-11 03:45 195 9
2020-Jul-11 02:45 214 6
2020-Jul-11 01:45 189 10
2020-Jul-11 00:45 138 10
2020-Jul-10 23:45 134 9
2020-Jul-10 22:45 139 8
2020-Jul-10 21:45 130 9
2020-Jul-10 20:45 150 8
2020-Jul-10 19:45 104 7
2020-Jul-10 18:45 109 3
2020-Jul-10 17:45 116 3